Content
SEND FEEDBACK

Daily
Averages
Monthly
Summary
Switzerland

GENEVA, SWITZERLAND


Home > Europe > Switzerland
Elevation: 1364 feet     Latitude: 46 15N     Longitude: 006 08E

WEATHER
 
SELECT A DAY
Number of Records: 305,866;   Date Range: 7/1/96 - 8/12/14
 
SHARE

PRINT THIS DATA

[ ← Previous Day ]
WEATHER ALMANAC - APRIL 3, 2013
[ Next Day → ]
[ °C ]   °F
Weather ElementAverageHighLow
Temperature42.4 °F51.8 °F (5:50 pm)32 °F (6:50 am)
Dewpoint32.5 °F35.6 °F (7:50 pm)28 °F (6:00 pm)
Humidity66.5 %93 % (6:50 am)30 % (6:00 pm)
Barometer29.73 in29.82 in (6:00 am)29.68 in (4:50 pm)
Wind Speed6.3 mph13.8 mph (12:50 am)
Weather ElementAverage
Visibility4.6 mi
Wind DirectionNE (40.8 °)

Weather ElementTotal
Precipitation---
Heating Degree Days23.1 (Base 65)
Averaged from 66 records on April 3, 2013
WEATHER CONDITIONS BREAKOUT
WIND DIRECTION BREAKOUT
WEATHER BY HOUR - APRIL 3, 2013
[ °C ]   °F
Local TimeTemperatureDewpointHumidityBarometerVisibilityWind DirectionWind SpeedGust SpeedPrecipitationEventsConditions
12:20 AM42.8 °F32.0 °F66 %29.71 in5.0 miNE (50°)11.5 mphMostly Cloudy
12:50 AM41.0 °F32.0 °F70 %29.71 in5.0 miNE (50°)13.8 mphMostly Cloudy
1:00 AM41.0 °F32.0 °F59 %29.76 inNE (50°)13.8 mph
1:20 AM41.0 °F32.0 °F70 %29.71 in5.0 miENE (60°)10.4 mphMostly Cloudy
1:50 AM41.0 °F32.0 °F70 %29.74 in5.0 miNE (50°)5.8 mphMostly Cloudy
2:00 AM40.0 °F32.0 °F65 %29.78 in5.0 miNE (50°)6.9 mphHaze
2:20 AM39.2 °F32.0 °F75 %29.74 in5.0 miVariable2.3 mphMostly Cloudy
2:50 AM39.2 °F32.0 °F75 %29.74 in5.0 miVariable3.5 mphMostly Cloudy
3:00 AM39.0 °F32.0 °F68 %29.79 inNE (50°)4.6 mph
3:50 AM39.2 °F32.0 °F75 %29.74 in4.3 miVariable2.3 mphMostly Cloudy
4:00 AM39.0 °F31.0 °F63 %29.80 inNNE (30°)3.5 mph
4:20 AM37.4 °F32.0 °F81 %29.74 in4.3 miNE (50°)2.3 mphMostly Cloudy
4:50 AM37.4 °F32.0 °F81 %29.74 in4.3 miVariable2.3 mph
5:20 AM35.6 °F32.0 °F87 %29.74 in4.3 miVariable3.5 mph
5:50 AM35.6 °F32.0 °F87 %29.74 in3.7 miVariable3.5 mph
6:00 AM34.0 °F30.0 °F80 %29.82 inNorth (10°)3.5 mph
6:20 AM33.8 °F30.2 °F87 %29.74 in3.7 miNorth (350°)2.3 mph
6:50 AM32.0 °F30.2 °F93 %29.74 in3.7 miNorth (10°)2.3 mph
7:00 AM33.0 °F30.0 °F82 %29.82 inNorth3.5 mph
7:20 AM32.0 °F30.2 °F93 %29.74 in3.1 miVariable2.3 mphMist
7:50 AM32.0 °F30.2 °F93 %29.74 in3.1 miNorth (10°)2.3 mphMist
8:00 AM34.0 °F30.0 °F81 %29.82 in3.0 miNNE (20°)3.5 mphMist
8:20 AM33.8 °F32.0 °F93 %29.74 in3.1 miVariable1.2 mphMist
8:50 AM37.4 °F33.8 °F87 %29.77 in3.1 miVariable1.2 mphMist
9:00 AM38.0 °F33.0 °F77 %29.81 inNNE (20°)3.5 mph
9:20 AM39.2 °F33.8 °F81 %29.74 in3.7 miNE (50°)4.6 mphScattered Clouds
9:50 AM39.2 °F33.8 °F81 %29.77 in3.7 miENE (70°)3.5 mphMostly Cloudy
10:00 AM39.0 °F33.0 °F72 %29.81 inNE (40°)3.5 mph
10:20 AM39.2 °F33.8 °F81 %29.77 in3.7 miENE (60°)5.8 mphMostly Cloudy
10:50 AM41.0 °F33.8 °F76 %29.74 in3.7 miNE (50°)6.9 mphMostly Cloudy
11:20 AM41.0 °F33.8 °F76 %29.77 in4.3 miNNE (30°)4.6 mphMostly Cloudy
11:50 AM42.8 °F33.8 °F70 %29.74 in4.3 miVariable2.3 mphMostly Cloudy
12:00 PM44.0 °F33.0 °F54 %29.78 inNE (40°)4.6 mph
12:20 PM44.6 °F32.0 °F61 %29.74 in5.0 miEast (80°)6.9 mphScattered Clouds
12:50 PM44.6 °F33.8 °F66 %29.74 in5.0 miNNE (30°)5.8 mphScattered Clouds
1:00 PM44.0 °F32.0 °F52 %29.78 inEast (80°)4.6 mph
1:20 PM46.4 °F33.8 °F62 %29.74 in5.0 miVariable4.6 mphPartly Cloudy
1:50 PM46.4 °F33.8 °F62 %29.74 in5.0 miVariable4.6 mphPartly Cloudy
2:00 PM47.0 °F34.0 °F48 %29.75 in5.0 miNE (50°)6.9 mphHaze
2:20 PM46.4 °F33.8 °F62 %29.74 in5.0 miNE (50°)6.9 mphPartly Cloudy
2:50 PM48.2 °F33.8 °F58 %29.71 in5.6 miENE (60°)6.9 mphPartly Cloudy
3:00 PM49.0 °F31.0 °F38 %29.74 inNE (50°)9.2 mph
3:20 PM50.0 °F32.0 °F50 %29.71 in5.6 miENE (60°)5.8 mphPartly Cloudy
3:50 PM50.0 °F32.0 °F50 %29.71 in5.6 miNE (50°)5.8 mphPartly Cloudy
4:00 PM50.0 °F31.0 °F35 %29.72 inENE (70°)8.1 mph
4:20 PM50.0 °F30.2 °F47 %29.71 in5.6 miNNE (30°)8.1 mphPartly Cloudy
4:50 PM50.0 °F32.0 °F50 %29.68 in5.6 miENE (70°)8.1 mphPartly Cloudy
5:20 PM50.0 °F32.0 °F50 %29.68 in5.6 miNE (50°)9.2 mphPartly Cloudy
5:50 PM51.8 °F32.0 °F47 %29.68 in5.0 miNE (40°)8.1 mphPartly Cloudy
6:00 PM50.0 °F28.0 °F30 %29.69 inNE (50°)8.1 mph
6:20 PM50.0 °F32.0 °F50 %29.68 in5.0 miNE (40°)6.9 mphScattered Clouds
6:50 PM50.0 °F32.0 °F50 %29.68 in5.0 miNNE (30°)5.8 mphScattered Clouds
7:00 PM50.0 °F31.0 °F35 %29.69 inNNE (30°)9.2 mph
7:20 PM50.0 °F32.0 °F50 %29.68 in5.0 miNE (40°)6.9 mphScattered Clouds
7:50 PM48.2 °F35.6 °F62 %29.68 in4.3 miNE (40°)8.1 mphPartly Cloudy
8:00 PM47.0 °F35.0 °F53 %29.70 in5.0 miNE (40°)8.1 mphHaze
8:20 PM46.4 °F35.6 °F66 %29.68 in4.3 miNE (40°)6.9 mphPartly Cloudy
8:50 PM44.6 °F33.8 °F66 %29.68 in4.3 miNE (50°)11.5 mphPartly Cloudy
9:00 PM45.0 °F35.0 °F56 %29.72 inNE (50°)12.7 mph
9:20 PM44.6 °F33.8 °F66 %29.71 in4.3 miNE (50°)10.4 mphPartly Cloudy
9:50 PM42.8 °F33.8 °F70 %29.71 in5.0 miNE (50°)10.4 mphPartly Cloudy
10:00 PM43.0 °F33.0 °F59 %29.74 inNE (40°)11.5 mph
10:20 PM42.8 °F33.8 °F70 %29.71 in5.0 miNE (40°)9.2 mphPartly Cloudy
10:50 PM42.8 °F33.8 °F70 %29.71 in5.0 miNE (40°)10.4 mphPartly Cloudy
11:20 PM41.0 °F33.8 °F76 %29.71 in5.0 miNE (40°)8.1 mph
11:50 PM41.0 °F33.8 °F76 %29.71 in5.0 miNE (50°)10.4 mph
Hourly data recorded from LSGG, located miles away from Geneva, Switzerland







STORIES FROM OUR PARTNERS